Location: Newark
(21.1200°N, 73.4000°E)
Time: 04:03:33
(UTC+00:00)

Courier 1B Rocket - Pass Details

Date: 20 January 2020
Orbit: 920 x 1202 km, 28.2° (Epoch: 16 February)

Event Time Altitude Azimuth Distance (km) Brightness Sun altitude
Rises 08:36:35 0° 261° (W) 3,797 8.4 44.4°
Reaches altitude 10° 08:39:25 10° 264° (W) 2,801 7.9 44.1°
Maximum altitude 08:46:06 63° 345° (NNW) 1,076 5.7 43.3°
Drops below altitude 10° 08:52:24 10° 66° (ENE) 2,641 7.0 42.6°
Sets 08:55:00 0° 69° (ENE) 3,566 7.6 42.3°
